Regional Weather Roundup
Issued by NWS

Home | Current Version | Previous Version | Graphics & Text | Print | Product List | Glossary On
Versions: 1 2 3 4 5 6 7 8 9 10 11 12 13 14 15 16 17 18 19 20 21 22 23 24 25 26 27 28 29 30 31 32 33 34 35 36 37 38 39 40 41 42 43 44 45 46 47 48 49 50
000
ASUS43 KDTX 250610
RWRMI
MICHIGAN HOURLY REGIONAL WEATHER ROUNDUP
NATIONAL WEATHER SERVICE DETROIT/PONTIAC MI
200 AM EDT TUE APR 25 2017

NOTE: "FAIR" INDICATES FEW OR NO CLOUDS BELOW 12,000 FEET WITH NO
SIGNIFICANT WEATHER AND/OR OBSTRUCTION TO VISIBILITY.

MIZ047>049-052>055-059>063-066>070-074>076-081>083-250700-
SOUTHEAST LOWER MICHIGAN

CITY           SKY/WX    TMP DP  RH WIND       PRES   REMARKS
ADRIAN         PTCLDY    49  46  90 E6        29.86F
6HR MIN TEMP:  49; 6HR MAX TEMP:  57;

ALMA           CLOUDY    48  44  84 E8        29.88R
6HR MIN TEMP:  46; 6HR MAX TEMP:  56;

ANN ARBOR      MOCLDY    53  45  74 NE5       29.87F
BAD AXE        CLOUDY    47  34  61 SE8G17    29.92F
6HR MIN TEMP:  47; 6HR MAX TEMP:  51;

CARO           CLOUDY    49  37  64 E8        29.90S
DETROIT CITY   MOCLDY    51  42  71 SE10      29.90F
6HR MIN TEMP:  50; 6HR MAX TEMP:  62;

DETROIT        CLOUDY    53  43  68 E6        29.88F
6HR MIN TEMP:  52; 6HR MAX TEMP:  63;

FLINT          PTCLDY    49  40  71 E6        29.89F
6HR MIN TEMP:  47; 6HR MAX TEMP:  64;

GROSSE ILE     PTCLDY    53  43  69 SE10      29.87F
6HR MIN TEMP:  53; 6HR MAX TEMP:  59;

HILLSDALE      MOCLDY    52  45  76 E8        29.84F
HOWELL         CLOUDY    53  39  59 SE8       29.87F
6HR MIN TEMP:  53; 6HR MAX TEMP:  65;


CITY           SKY/WX    TMP DP  RH WIND       PRES   REMARKS
JACKSON        CLOUDY    53  43  68 E7        29.86S
6HR MIN TEMP:  52; 6HR MAX TEMP:  65;

LAMBERTVILLE   PTCLDY    53  48  84 SE6       29.86S
6HR MIN TEMP:  51; 6HR MAX TEMP:  54;

LANSING        CLOUDY    55  38  52 SE10      29.86S
6HR MIN TEMP:  55; 6HR MAX TEMP:  66;

LAPEER         FAIR      49  38  67 CALM      29.91S
6HR MIN TEMP:  49; 6HR MAX TEMP:  63;

MASON          CLOUDY    53  42  67 E5        29.87S
MONROE         CLEAR     52  46  80 E8        29.87S
6HR MIN TEMP:  52; 6HR MAX TEMP:  57;

MT. CLEMENS    CLEAR     49  43  79 E6        29.90S
6HR MIN TEMP:  49; 6HR MAX TEMP:  59;

PONTIAC        PTCLDY    51  39  63 E10       29.89S
6HR MIN TEMP:  51; 6HR MAX TEMP:  65;

PORT HOPE        N/A     49  36  61 SE16G22   29.92F
6HR MIN TEMP:  44; 6HR MAX TEMP:  53;

PORT HURON     PTCLDY    48  36  61 E5        29.92F
TRI CITIES     CLOUDY    50  42  74 SE9       29.89F
6HR MIN TEMP:  48; 6HR MAX TEMP:  51;

MIDLAND        FAIR      49  40  69 E6        29.89S
6HR MIN TEMP:  47; 6HR MAX TEMP:  52;

TROY           CLEAR     52  38  59 E8        29.92S
SAGINAW HB     CLOUDY    50  36  57 SE6       29.89S
$$
MIZ043>046-050>051-056>058-064>065-071>073-077>080-250700-
SOUTHWEST LOWER MICHIGAN

CITY           SKY/WX    TMP DP  RH WIND       PRES   REMARKS
BATTLE CREEK   CLEAR     55  43  63 SE7       29.84R
6HR MIN TEMP:  55; 6HR MAX TEMP:  67;

BENTON HARBOR  CLEAR     55  36  48 SE7       29.81R
6HR MIN TEMP:  55; 6HR MAX TEMP:  69;

BIG RAPIDS     CLEAR     46  39  76 SE3       29.87S
6HR MIN TEMP:  46; 6HR MAX TEMP:  64;

COLDWATER      CLEAR     53  45  75 SE6       29.84R
6HR MIN TEMP:  53; 6HR MAX TEMP:  64;

FREMONT        FAIR      52  38  57 E9        29.83S
HOLLAND        CLEAR     54  36  50 SE7       29.83R
6HR MIN TEMP:  54; 6HR MAX TEMP:  65;

GRAND RAPIDS   CLEAR     54  38  54 E8        29.84R
6HR MIN TEMP:  54; 6HR MAX TEMP:  66;

IONIA          FAIR      49  41  75 E6        29.85S
6HR MIN TEMP:  48; 6HR MAX TEMP:  64;

KALAMAZOO      CLEAR     55  40  56 SE6       29.83S
6HR MIN TEMP:  55; 6HR MAX TEMP:  68;

LUDINGTON      CLOUDY    53  41  62 SE9       29.80F
6HR MIN TEMP:  46; 6HR MAX TEMP:  59;

MARSHALL       CLOUDY    53  43  70 E7        29.84S
6HR MIN TEMP:  53; 6HR MAX TEMP:  65;

MOUNT PLEASANT CLOUDY    45  41  86 N3        29.88S
6HR MIN TEMP:  45; 6HR MAX TEMP:  59;

MUSKEGON       PTCLDY    55  34  45 E10       29.81F
6HR MIN TEMP:  54; 6HR MAX TEMP:  68;

SOUTH HAVEN    CLEAR     56  37  47 SE6       29.81R
$$
MIZ016>042-250700-
NORTHERN LOWER MICHIGAN

CITY           SKY/WX    TMP DP  RH WIND       PRES   REMARKS
ALPENA         CLOUDY    39  37  92 E6        29.96S WCI  35
6HR MIN TEMP:  39; 6HR MAX TEMP:  44;

BEAVER ISLAND  PTCLDY    46  35  67 E15       29.88F
6HR MIN TEMP:  42; 6HR MAX TEMP:  47;

BELLAIRE       CLEAR     53  35  51 SE7       29.87S
6HR MIN TEMP:  49; 6HR MAX TEMP:  67;

CADILLAC       CLEAR     44  37  76 SE7       29.86F
CHARLEVOIX     PTCLDY    48  36  63 E9        29.89F
FRANKFORT      CLOUDY    55  39  56 SE8       29.81F
GAYLORD        CLEAR     43  34  70 SE8       29.89F
6HR MIN TEMP:  43; 6HR MAX TEMP:  57;

GRAYLING       CLEAR     37  33  86 E5        29.90F WCI  33
6HR MIN TEMP:  37; 6HR MAX TEMP:  60;

HARBOR SPRINGS CLEAR     43  34  71 NE10      29.90S
HOUGHTON LAKE  CLEAR     47  37  68 SE7       29.90S
6HR MIN TEMP:  44; 6HR MAX TEMP:  59;

MANISTEE       PTCLDY    54  40  59 SE9       29.81S
OSCODA         CLOUDY    49  36  59 S9        29.93S
6HR MIN TEMP:  41; 6HR MAX TEMP:  49;

PELLSTON       PTCLDY    43  33  68 SE7       29.92
6HR MIN TEMP:  43; 6HR MAX TEMP:  51;

ROGERS CITY    PTCLDY    41  35  77 SE8       29.96S
TRAVERSE CITY  CLOUDY    53  37  54 VRB3      29.84F
6HR MIN TEMP:  53; 6HR MAX TEMP:  65;

$$
MIZ007>008-015-250700-
EASTERN UPPER MICHIGAN

CITY           SKY/WX    TMP DP  RH WIND       PRES   REMARKS
KINROSS        CLOUDY    42  31  64 E14       29.93F
6HR MIN TEMP:  42; 6HR MAX TEMP:  46;

MACKINAC ISLAN MOCLDY    41  32  70 E15G28    29.93S
6HR MIN TEMP:  39; 6HR MAX TEMP:  44;

NEWBERRY       PTCLDY    44  32  63 SE10G16   29.89S
6HR MIN TEMP:  43; 6HR MAX TEMP:  45;

S. S. MARIE    CLOUDY    46  31  55 E10G21    29.94S
6HR MIN TEMP:  46; 6HR MAX TEMP:  48;

MUNISING         N/A     47  36  65 VRB5      29.82S
6HR MIN TEMP:  45; 6HR MAX TEMP:  51;

$$
MIZ004>006-011>014-085-250700-
CENTRAL UPPER MICHIGAN

CITY           SKY/WX    TMP DP  RH WIND       PRES   REMARKS
MANISTIQUE     CLOUDY    44  38  79 E15G23    29.84F
6HR MIN TEMP:  43; 6HR MAX TEMP:  45;

ESCANABA       CLOUDY    44  38  79 NE5       29.82R
6HR MIN TEMP:  42; 6HR MAX TEMP:  46;

MENOMINEE      MOCLDY    43  38  82 NW5       29.81R
6HR MIN TEMP:  43; 6HR MAX TEMP:  46;

SAWYER-GWINN   PTCLDY    42  35  76 S7        29.82S
6HR MIN TEMP:  42; 6HR MAX TEMP:  49;

$$
MIZ001>003-009>011-084-250700-
WESTERN UPPER MICHIGAN

CITY           SKY/WX    TMP DP  RH WIND       PRES   REMARKS
IRON MOUNTAIN  CLOUDY    43  34  70 SE6       29.78F
6HR MIN TEMP:  40; 6HR MAX TEMP:  50;

HOUGHTON       CLOUDY    46  34  62 E5        29.76R
6HR MIN TEMP:  41; 6HR MAX TEMP:  46;

COPPER HARBOR    N/A     45  35  68 SW12G26   29.77R
6HR MIN TEMP:  41; 6HR MAX TEMP:  48;

IRONWOOD       CLOUDY    59  36  42 SE13G20   29.66S
6HR MIN TEMP:  58; 6HR MAX TEMP:  64;

$$

ABBREVIATIONS USED IN REMARKS
   TC - TEMPERATURE IN CELSIUS
  WCI - WIND CHILL INDEX
   HX - HEAT INDEX
  VSB - VISIBILITY




USA.gov is the U.S. government's official web portal to all federal, state and local government web resources and services.